TITAN 3C TRANSTAGE DEB, 1859

Orbit data source: Space-Track

TITAN 3C TRANSTAGE DEB, 1859 is space debris in LEO originally from a launch on Fri, 15 Oct 1965 UTC launched from the Air Force Eastern Test Range (AFETR). Debris objects in space refer to the collection of defunct objects orbiting the Earth. Examples of debris include non-operational satellites, rocket bodies, and fragments generated from explosions, collisions, or faulty payload assembly.

Loading next visibility...
Identifier
1859, 1965-082ES
Orbit
LEO
Last TLE update
19 hours ago
Origin
Manufacturer
Unknown
Mission
Spacecraft
Bus & Motor
Unknown
Mass
Unknown
Launch date (UTC)
1965-10-15 (60 years ago)
Launch vehicle
Unknown
Launch site
Air Force Eastern Test Range (AFETR)
Object type
Payload
Rocket body
Debris
Shape & HBR
Unknown
Radar Cross Section
Medium (>0.1 m² and <1 m²)

Expand to show TLE details & history

TLE from 19 hours ago
0 TITAN 3C TRANSTAGE DEB
1  1859U 65082ES  25109.18396288  .00001198  00000-0  29581-3 0  9993
2  1859  32.1253 100.3168 0067595 224.5284 134.9910 14.48516295126077
Epoch: 2025-04-19T04:24Z
Definitive object data (Epoch: 2025-04-19T04:24:54.392Z)
Latitude
-0.00006°
Longitude
-173.44073°
Altitude
763.281 km
Speed
7.457 km/s
True Right ascension
06h 41m 16s
True Declination
0° 00' 00"
Sunlit
Object was in daylight at TLE epoch
Visualization TLE readout
Latitude
-32.15244°
Longitude
86.54061°
Altitude
698.247 km
Speed
7.529 km/s
Apparent Right ascension
21h 41m 06s
Apparent Declination
-42° 57' 03"
Sunlit
Object is in daylight
Visualization observer readout
Local Sidereal Time
06:42:37
Azimuth
249.883° W
Elevation
-56.802°
Doppler factor
1
Orbital elements
Apogee altitude
782.147 km
Perigee altitude
685.997 km
Semi-major axis
7,112.209 km
Eccentricity
0.0067595
Inclination
32.1253°
RAAN
100.3168°
Arg. of periapsis
224.5284°
True anomaly
135.53554°
Mean anomaly
134.991°
Eccentric anomaly
135.26359°
Mean motion
3.61857 °/min
BSTAR
0.00029581
Orbital period
99.49 mins
Loading maneuver chart data...
Loading SW <> Apogee altitude chart data...

TITAN 3C TRANSTAGE DEB Visibility forecast

Observer location: undefined°, undefined°

Span
Click to sort rows by Start time (UTC) header in descending order
Start Az.
Max El. time (UTC)
Max El. Az.
Max El.
End time (UTC)
End Az.
4 mins2025-04-20 02:07:47.286Z177.651° S2025-04-20 02:09:47.286Z154.69° SSE13.685°2025-04-20 02:11:47.286Z131.462° SE
7 mins2025-04-20 03:51:47.286Z211.981° SW2025-04-20 03:54:47.286Z162.831° S26.219°2025-04-20 03:58:47.286Z110.888° ESE
8 mins2025-04-20 05:35:47.286Z240.692° WSW2025-04-20 05:39:47.286Z175.523° S30.207°2025-04-20 05:43:47.286Z120.486° SE
6 mins2025-04-20 07:21:47.286Z235.873° WSW2025-04-20 07:24:47.286Z190.106° SSW22.206°2025-04-20 07:27:47.286Z150.525° SSE
|